TimeCST,TemperatureF,Dew PointF,Humidity,Sea Level PressureIn,VisibilityMPH,Wind Direction,Wind SpeedMPH,Gust SpeedMPH,PrecipitationIn,Events,Conditions,WindDirDegrees,DateUTC
12:15 AM,34.3,22.6,62,29.94,10.0,SE,6.9,-,N/A,,Overcast,130,2012-12-07 06:15:00
12:35 AM,34.9,22.6,61,29.94,10.0,SSE,5.8,-,N/A,,Overcast,150,2012-12-07 06:35:00
12:55 AM,33.8,22.3,63,29.94,10.0,SE,5.8,-,N/A,,Mostly Cloudy,140,2012-12-07 06:55:00
1:15 AM,33.8,22.6,64,29.94,10.0,SE,3.5,-,N/A,,Overcast,130,2012-12-07 07:15:00
1:35 AM,33.8,22.6,64,29.93,10.0,SE,3.5,-,N/A,,Overcast,130,2012-12-07 07:35:00
1:55 AM,34.2,22.8,63,29.93,10.0,SE,4.6,-,N/A,,Overcast,140,2012-12-07 07:55:00
2:15 AM,33.8,23.0,65,29.92,10.0,SE,3.5,-,N/A,,Overcast,140,2012-12-07 08:15:00
2:35 AM,33.8,23.0,65,29.92,10.0,SSE,4.6,-,N/A,,Overcast,160,2012-12-07 08:35:00
2:55 AM,34.0,23.4,65,29.93,10.0,South,3.5,-,N/A,,Overcast,170,2012-12-07 08:55:00
3:15 AM,34.3,23.0,63,29.93,10.0,SSE,4.6,-,N/A,,Overcast,150,2012-12-07 09:15:00
3:35 AM,34.7,23.4,63,29.92,10.0,SE,3.5,-,N/A,,Overcast,140,2012-12-07 09:35:00
3:55 AM,34.5,23.5,64,29.92,10.0,ESE,3.5,-,N/A,,Overcast,120,2012-12-07 09:55:00
4:15 AM,34.0,23.9,67,29.91,10.0,East,3.5,-,N/A,,Overcast,100,2012-12-07 10:15:00
4:35 AM,33.4,24.8,71,29.89,10.0,ESE,4.6,-,N/A,,Overcast,110,2012-12-07 10:35:00
4:55 AM,33.4,24.8,71,29.87,10.0,SE,8.1,-,N/A,,Overcast,130,2012-12-07 10:55:00
5:15 AM,33.4,25.0,71,29.87,10.0,ESE,5.8,-,N/A,,Overcast,120,2012-12-07 11:15:00
5:35 AM,33.4,25.3,72,29.85,10.0,SE,6.9,-,N/A,,Overcast,140,2012-12-07 11:35:00
5:55 AM,34.2,25.3,70,29.85,10.0,SE,6.9,-,N/A,,Overcast,130,2012-12-07 11:55:00
6:15 AM,34.0,25.3,71,29.87,10.0,SSE,3.5,-,N/A,,Overcast,150,2012-12-07 12:15:00
6:35 AM,34.2,25.2,70,29.85,10.0,SSE,8.1,-,N/A,,Overcast,160,2012-12-07 12:35:00
6:55 AM,34.2,24.8,69,29.84,10.0,SSE,9.2,-,N/A,,Overcast,150,2012-12-07 12:55:00
7:15 AM,34.2,24.6,68,29.84,10.0,SSE,6.9,-,N/A,,Overcast,150,2012-12-07 13:15:00
7:35 AM,34.0,24.3,68,29.83,10.0,SSE,10.4,-,N/A,,Overcast,150,2012-12-07 13:35:00
7:55 AM,34.0,24.4,68,29.83,10.0,SSE,10.4,16.1,N/A,,Overcast,150,2012-12-07 13:55:00
8:15 AM,33.8,24.6,69,29.84,10.0,SSE,10.4,-,N/A,,Overcast,160,2012-12-07 14:15:00
8:35 AM,33.4,24.8,71,29.84,10.0,SSE,8.1,-,N/A,,Overcast,160,2012-12-07 14:35:00
8:55 AM,33.4,24.8,71,29.85,10.0,SSE,8.1,-,N/A,,Overcast,160,2012-12-07 14:55:00
9:15 AM,33.4,24.6,70,29.84,10.0,SSE,10.4,-,N/A,,Overcast,150,2012-12-07 15:15:00
9:35 AM,33.8,24.6,69,29.84,10.0,SSE,10.4,-,N/A,,Overcast,160,2012-12-07 15:35:00
9:55 AM,33.8,23.9,67,29.84,10.0,South,15.0,-,N/A,,Overcast,170,2012-12-07 15:55:00
10:15 AM,33.8,23.9,67,29.84,10.0,South,15.0,19.6,N/A,,Overcast,170,2012-12-07 16:15:00
10:35 AM,34.2,23.9,66,29.84,10.0,South,13.8,18.4,N/A,,Overcast,180,2012-12-07 16:35:00
10:55 AM,34.7,23.4,63,29.84,10.0,South,13.8,-,N/A,,Overcast,180,2012-12-07 16:55:00
11:15 AM,35.2,23.0,61,29.84,10.0,SSW,12.7,-,N/A,,Overcast,200,2012-12-07 17:15:00
11:35 AM,36.0,22.6,58,29.83,10.0,SSW,11.5,-,N/A,,Mostly Cloudy,210,2012-12-07 17:35:00
11:55 AM,39.2,22.8,52,29.82,10.0,SW,11.5,-,N/A,,Scattered Clouds,230,2012-12-07 17:55:00
12:15 PM,39.9,22.5,50,29.81,10.0,WSW,12.7,-,N/A,,Clear,240,2012-12-07 18:15:00
12:35 PM,41.9,23.0,47,29.80,10.0,West,15.0,18.4,N/A,,Clear,260,2012-12-07 18:35:00
12:55 PM,43.0,22.8,45,29.80,10.0,WNW,17.3,20.7,N/A,,Clear,290,2012-12-07 18:55:00
1:15 PM,43.0,22.8,45,29.81,10.0,WNW,19.6,23.0,N/A,,Clear,290,2012-12-07 19:15:00
1:35 PM,42.6,23.0,46,29.81,10.0,NW,18.4,27.6,N/A,,Scattered Clouds,310,2012-12-07 19:35:00
1:55 PM,42.4,23.0,46,29.81,10.0,WNW,21.9,27.6,N/A,,Scattered Clouds,300,2012-12-07 19:55:00
2:15 PM,41.9,23.0,47,29.82,10.0,NW,21.9,29.9,N/A,,Clear,310,2012-12-07 20:15:00
2:35 PM,39.7,22.8,51,29.83,10.0,NW,19.6,-,N/A,,Clear,310,2012-12-07 20:35:00
2:55 PM,39.7,23.0,51,29.84,10.0,NW,19.6,25.3,N/A,,Mostly Cloudy,320,2012-12-07 20:55:00
3:15 PM,37.6,24.3,59,29.85,10.0,NW,18.4,27.6,N/A,,Overcast,310,2012-12-07 21:15:00
3:35 PM,37.0,23.4,58,29.87,10.0,NNW,20.7,27.6,N/A,,Overcast,340,2012-12-07 21:35:00
3:55 PM,35.2,24.3,64,29.88,10.0,NNW,18.4,26.5,N/A,,Overcast,330,2012-12-07 21:55:00
4:15 PM,33.8,23.5,66,29.89,10.0,NNW,15.0,-,N/A,,Scattered Clouds,330,2012-12-07 22:15:00
4:35 PM,34.5,23.0,63,29.91,10.0,NNW,16.1,23.0,N/A,,Mostly Cloudy,330,2012-12-07 22:35:00
4:55 PM,34.3,23.2,64,29.92,10.0,NNW,13.8,-,N/A,,Overcast,340,2012-12-07 22:55:00
5:15 PM,34.0,23.0,64,29.92,10.0,NW,15.0,20.7,N/A,,Overcast,320,2012-12-07 23:15:00
5:35 PM,33.8,22.5,63,29.92,10.0,NNW,11.5,-,N/A,,Overcast,330,2012-12-07 23:35:00
5:55 PM,33.6,24.6,70,29.94,10.0,NNW,13.8,-,N/A,,Overcast,330,2012-12-07 23:55:00
6:15 PM,32.7,25.5,75,29.94,10.0,North,11.5,-,N/A,,Overcast,350,2012-12-08 00:15:00
6:35 PM,32.4,25.3,75,29.94,10.0,NNW,11.5,-,N/A,,Overcast,330,2012-12-08 00:35:00
6:55 PM,32.0,24.8,75,29.95,10.0,NW,12.7,-,N/A,,Overcast,320,2012-12-08 00:55:00
7:15 PM,32.0,23.9,72,29.95,10.0,North,13.8,18.4,N/A,,Overcast,350,2012-12-08 01:15:00
7:35 PM,31.6,23.9,73,29.95,10.0,NNW,15.0,-,N/A,,Overcast,330,2012-12-08 01:35:00
7:55 PM,32.0,24.8,75,29.95,10.0,NNW,12.7,-,N/A,,Overcast,340,2012-12-08 01:55:00
8:15 PM,30.2,24.8,80,29.95,10.0,North,11.5,17.3,N/A,,Overcast,350,2012-12-08 02:15:00
8:35 PM,30.0,24.4,80,29.95,10.0,North,12.7,-,N/A,,Overcast,360,2012-12-08 02:35:00
8:55 PM,29.8,24.8,81,29.95,10.0,North,8.1,-,N/A,,Overcast,360,2012-12-08 02:55:00
9:15 PM,29.3,24.1,81,29.96,10.0,NW,4.6,-,N/A,,Overcast,320,2012-12-08 03:15:00
9:35 PM,29.3,24.1,81,29.96,10.0,North,6.9,-,N/A,,Overcast,350,2012-12-08 03:35:00
9:55 PM,29.3,24.4,82,29.96,10.0,NW,5.8,-,N/A,,Overcast,320,2012-12-08 03:55:00
10:15 PM,29.1,24.3,82,29.95,10.0,Calm,Calm,-,N/A,,Overcast,0,2012-12-08 04:15:00
10:35 PM,29.1,24.3,82,29.96,10.0,Calm,Calm,-,N/A,,Overcast,0,2012-12-08 04:35:00
10:55 PM,28.9,23.9,81,29.97,10.0,Calm,Calm,-,N/A,,Overcast,0,2012-12-08 04:55:00
11:15 PM,29.1,23.9,81,29.97,10.0,Calm,Calm,-,N/A,,Overcast,0,2012-12-08 05:15:00
11:35 PM,28.6,23.9,83,29.96,10.0,Calm,Calm,-,N/A,,Overcast,0,2012-12-08 05:35:00
11:55 PM,28.8,23.9,82,29.96,10.0,Calm,Calm,-,N/A,,Overcast,0,2012-12-08 05:55:00